Location: Azul
(36.7830°S, 59.8500°W)
Time: 09:16:10
(UTC-03:00)

ISS - Pass Details

Date: 07 December 2019
Orbit: 411 x 421 km, 51.6° (Epoch: 11 December)

Event Time Altitude Azimuth Distance (km) Brightness Sun altitude
Exits shadow 01:53:50 19° 155° (SSE) 1,091 -0.9 -28.8°
Drops below altitude 10° 01:55:03 10° 145° (SE) 1,527 -0.1 -28.7°
Sets 01:57:15 0° 136° (SE) 2,396 1.0 -28.6°
